User: anonymous   Login
Location: Unspecified
(0.0000°N, 0.0000°E)
Time: 05:45:06
(UTC+00:00)
Language:

PACE - Orbit

View from above orbital plane
View from above orbital plane
View from above satellite
View from above satellite

Ground track
Ground track

The orbit data is extracted from the following two-line orbital elements,

1 40022U 14033N   19083.19712832  .00000210  00000-0  28558-4 0  9998
2 40022  97.9080   2.9022 0013253 353.5074   6.5968 14.88604620258412
Epoch (UTC): 24 March 2019 04:43:51
Eccentricity: 0.0013253
inclination: 97.9080°
perigee height: 593 km
apogee height: 611 km
right ascension of ascending node: 2.9022°
argument of perigee: 353.5074°
revolutions per day: 14.88604620
mean anomaly at epoch: 6.5968°
orbit number at epoch: 25841

The dashed part of the orbit path shows where the satellite is in the earth's shadow,  

DLR